SCP
0 0 0 0 0 0 0 0 0 0 0 0 0 0 0 0 0 0 0 0 0 0 0 0 0 0 0 0 0 0 0 0 0 0 0 0 0 0
0 0 0 0 0 0 0 0 0 0 0 0 0 0 0 0 0 0 0 0 0 0 0 0 0 0 0 0 0 0 0 0 0 0 0 0 0 0
0 0 0 0 0 0 0 0 0 0 0 0 0 0 0 0 0 0 0 0 0 0 0 0 0 0 0 0 0 0 0 0 0 0 0 0 0 0
0 0 0 0 0 0 0 0 0 0 0 0 0 0 0 0 0 0 0 0 0 0 0 0 0 0 0 0 0 0 0 0 0 0 0 0 0 0
0 0 0 0 0 0 0 0 0 0 0 0 0 0 0 0 0 0 0 0 0 0 0 0 0 0 0 0 0 0 0 0 0 0 0 0 0 0
0 0 0 0 0 0 0 0 0 0 0 0 0 0 0 0 0 0 0 0 0 0 0 0 0 0 0 0 0 0 0 0 0 0 0 0 0 0
0 0 0 0 0 0 0 0 0 0 0 0 0 0 0 0 0 0 0 0 0 0 0 0 0 0 0 0 0 0 0 0 0 0 0 0 0 0
0 0 0 0 0 0 0 0 0 0 0 0 0 0 0 0 0 0 0 0 0 0 0 0 0 0 0 0 0 0 0 0 0 0 0 0 0 0
0 0 0 0 0 0 0 0 0 0 0 0 0 0 0 0 0 0 0 0 0 0 0 0 0 0 0 0 0 0 0 0 0 0 0 0 0 0
0 0 0 0 0 0 0 0 0 0 0 0 0 0 0 0 0 0 0 0 0 0 0 0 0 0 0 0 0 0 0 0 0 0 0 0 0 0
0 0 0 0 0 0 0 0 0 0 0 0 0 0 0 0 0 0 0 0 0 0 0 0 0 0 0 0 0 0 0 0 0 0 0 0 0 0
0 0 0 0 0 0 0 0 0 0 0 0 0 0 0 0 0 0 0 0 0 0 0 0 0 0 0 0 0 0 0 0 0 0 0 0 0 0
0 0 0 0 0 0 0 0 0 0 0 0 0 -0 -0 -0 0 0 0 0 0 0 0 0 0 0 0 0 0 0 0 0 0 0 0 0 0 0
0 0 0 0 0 0 0 0 0 0 0 0 0 -0 -0 -0 0 0 0 0 0 0 0 0 0 0 0 0 0 0 0 0 0 0 0 0 0 0
0 0 0 0 0 0 0 0 0 0 0 0 0 -0 -0 -0 -0 0 0 0 0 0 0 0 0 0 0 0 0 0 0 0 0 0 0 0 0 0
0 0 0 0 0 0 0 0 0 0 0 0 0 0 -0 -0 -0 0 0 0 0 0 0 0 0 0 0 0 0 0 0 0 0 0 0 0 0 0
0 0 0 0 0 0 0 0 0 0 0 0 0 0 -0 -0 -0 -0 0 0 0 0 0 0 0 0 0 0 0 0 0 0 0 0 0 0 0 0
0 0 0 0 0 0 0 0 0 0 0 0 0 0 0 -0 -0 -0 0 0 0 0 0 0 0 0 0 0 0 0 0 0 0 0 0 0 0 0
0 0 0 0 0 0 0 0 0 0 0 0 0 0 0 0 0 0 0 0 0 0 0 0 0 0 0 0 0 0 0 0 0 0 0 0 0 0
0 0 0 0 0 0 0 0 0 0 0 0 0 0 0 0 0 0 0 0 0 0 0 0 0 0 0 0 0 0 0 0 0 0 0 0 0 0
0 0 0 0 0 0 0 0 0 0 0 0 0 0 0 0 0 0 0 0 0 0 0 0 0 0 0 0 0 0 0 0 0 0 0 0 0 0
0 0 0 0 0 0 0 0 0 0 0 0 0 0 0 0 0 0 0 0 0 0 0 0 0 0 0 0 0 0 0 0 0 0 0 0 0 0
0 0 0 0 0 0 0 0 0 0 0 0 0 0 0 0 0 0 0 0 0 0 0 0 0 0 0 0 0 0 0 0 0 0 0 0 0 0
Wind_Speed
6 6 5 4 4 4 4 4 4 4 4 3 2 3 3 3 3 4 5 5 5 6 6 6 6 6 6 6 6 7 7 8 9 10 10 11 12 13
4 6 5 4 4 4 4 4 5 4 4 2 2 2 3 3 4 4 5 5 6 6 6 6 5 5 5 5 6 6 8 8 9 9 10 11 12 13
5 6 6 6 5 4 4 4 4 4 5 3 2 3 4 3 3 3 3 4 3 5 6 6 5 5 5 5 6 7 8 7 8 9 10 11 12 13
6 6 6 5 6 5 4 5 4 4 5 5 3 2 4 3 3 3 3 3 3 3 5 5 5 5 4 5 6 6 7 7 7 8 9 10 11 11
5 6 6 6 6 5 5 4 4 4 4 4 3 2 2 2 2 3 2 2 2 2 4 5 5 5 5 5 5 6 6 6 7 8 8 9 10 11
5 5 5 6 6 6 5 5 4 4 3 3 3 2 2 2 2 2 2 2 2 2 3 3 4 4 5 5 5 5 6 6 7 8 8 9 10 10
4 5 5 5 6 5 4 4 4 4 3 3 3 3 2 2 3 2 2 2 2 2 2 2 2 3 3 4 4 4 6 6 7 7 8 9 9 10
4 4 4 5 5 6 7 6 6 5 5 4 3 4 4 3 3 2 2 1 2 1 2 3 2 3 3 2 3 5 6 6 7 7 8 9 9 10
3 3 3 3 4 4 5 5 6 6 6 5 5 5 4 4 3 3 3 3 3 2 2 3 3 3 2 2 4 5 6 6 7 7 8 9 9 10
3 3 4 4 4 4 4 4 4 4 4 4 4 5 4 4 4 4 3 2 3 2 2 2 2 3 3 3 2 4 6 6 6 7 7 8 9 10
3 3 4 4 4 4 4 4 3 2 1 1 3 3 3 4 3 2 2 2 2 2 1 2 1 3 3 2 2 3 5 6 6 6 7 8 9 9
2 2 3 3 3 4 4 4 4 2 1 1 1 2 3 3 4 4 3 3 2 1 1 1 1 1 2 2 2 3 3 4 5 6 7 7 8 6
2 2 2 2 2 3 4 3 3 2 2 2 1 1 1 1 2 2 2 3 2 2 2 1 1 1 1 2 3 3 3 3 3 4 5 6 7 6
2 2 1 1 2 2 2 2 3 3 2 1 1 1 1 1 1 1 1 1 2 3 3 2 2 2 1 2 2 3 3 3 3 3 3 5 6 7
2 2 2 2 1 1 1 2 2 2 2 2 2 1 1 1 1 0 1 1 1 1 1 2 2 2 2 2 2 2 3 3 3 3 4 4 4 4
2 2 2 2 1 1 1 1 1 1 1 1 1 1 0 1 1 0 0 0 1 2 2 1 1 1 1 2 2 3 3 2 3 3 4 3 3 3
3 1 1 1 1 1 1 1 0 1 1 1 1 1 0 0 0 0 0 0 0 1 2 2 1 1 1 1 2 2 2 2 3 3 3 4 3 3
3 1 1 1 0 0 0 0 0 0 0 1 1 1 1 1 0 0 0 0 0 0 1 1 1 1 1 1 1 2 2 2 3 3 3 3 4 4
2 1 1 1 1 0 0 0 0 0 0 0 0 0 0 0 0 1 1 0 0 0 1 1 1 1 1 2 1 1 2 3 3 3 3 3 4 4
1 1 1 1 1 0 0 0 0 0 0 0 0 0 0 1 1 1 1 1 1 0 1 1 1 1 1 1 1 2 3 3 3 3 3 3 4 5
2 2 1 1 1 1 1 1 0 0 0 0 0 0 0 1 1 1 1 1 1 1 0 1 2 2 1 0 0 2 2 3 3 3 3 3 3 3
3 2 2 2 1 1 1 1 1 1 0 0 0 0 1 1 1 1 1 1 1 0 0 1 1 1 1 0 1 2 3 3 3 3 3 3 2 2
3 3 2 2 1 1 1 1 1 1 1 1 1 1 1 1 1 1 1 1 0 0 0 0 1 1 1 1 1 1 3 3 3 3 3 5 4 4
Wind_Direction
220 219 225 227 228 233 230 225 223 233 245 233 227 217 218 230 213 240 250 236 252 263 270 272 275 282 287 298 304 309 310 310 310 308 309 310 311 313
226 220 221 223 223 223 223 229 237 236 238 242 245 251 227 234 230 244 251 244 248 256 266 268 270 279 286 292 299 309 312 308 306 306 309 310 311 313
228 224 224 223 223 221 222 227 232 233 240 254 267 257 237 229 231 244 247 242 240 250 264 265 264 270 279 288 296 304 308 307 304 306 309 310 311 314
228 226 226 224 227 224 222 225 228 232 236 247 246 238 250 233 233 252 256 255 255 252 266 266 262 266 276 287 294 302 308 312 311 310 310 311 313 317
235 228 228 225 229 226 225 225 229 233 232 231 243 240 258 243 225 244 254 262 268 262 268 256 258 268 278 284 289 297 303 308 312 313 314 315 316 318
241 236 233 229 229 227 224 224 226 225 216 217 227 231 237 255 233 231 254 267 274 269 269 266 264 266 269 278 286 296 301 305 309 313 315 316 318 320
245 238 234 237 239 238 228 216 214 217 215 214 217 225 231 236 232 229 251 292 284 255 278 266 263 264 259 254 266 288 300 306 308 311 314 316 319 319
243 240 233 234 236 236 234 226 222 220 218 218 224 226 231 243 240 235 237 266 281 241 280 278 270 271 277 278 298 296 300 307 310 311 313 316 316 316
250 250 240 232 234 234 230 229 236 240 231 227 230 232 230 226 229 234 236 247 263 271 273 276 277 277 287 289 299 299 304 309 311 310 311 313 314 315
262 256 252 236 225 230 225 226 234 234 231 233 239 244 240 233 226 232 248 263 291 267 246 260 284 296 306 294 288 300 309 314 315 314 316 317 316 315
267 256 258 247 224 213 210 214 227 243 262 249 267 266 262 242 226 210 213 230 265 274 242 240 279 307 296 284 284 295 305 313 319 319 319 320 319 316
278 266 262 262 219 202 205 208 219 229 224 200 230 248 250 228 224 221 212 219 248 254 208 217 241 317 300 292 306 306 304 307 309 312 319 325 326 319
278 274 269 260 232 209 218 220 213 212 212 214 229 247 247 240 248 254 245 226 232 251 216 207 235 248 250 290 302 307 310 314 312 311 312 323 326 323
280 282 284 291 245 230 229 202 195 208 203 204 220 239 245 256 281 294 286 268 266 255 242 225 217 222 245 282 289 304 311 316 321 321 322 322 320 321
300 322 328 334 284 226 176 185 208 209 201 206 222 247 265 266 271 331 357 25 8 338 261 243 235 235 250 260 274 290 304 308 321 324 321 320 319 320
330 348 355 349 336 103 140 181 226 203 199 209 224 237 237 236 232 271 290 5 8 355 355 318 259 225 256 270 263 276 293 296 311 318 316 315 317 316
324 329 339 339 10 43 43 32 50 129 154 182 198 197 197 212 287 332 304 329 337 329 343 7 14 2 315 291 272 282 296 308 309 312 313 311 315 318
317 299 304 309 298 306 55 38 49 79 147 187 212 201 205 229 269 338 359 195 206 309 332 353 23 11 354 345 318 286 298 310 316 315 313 307 308 318
311 299 299 301 298 286 66 37 359 9 42 158 197 201 205 232 201 172 171 150 204 291 310 308 301 312 319 321 322 330 309 316 317 315 317 310 301 308
327 317 316 316 310 311 345 5 15 23 20 280 232 246 168 191 197 179 179 181 197 248 322 315 302 290 273 274 289 316 327 312 306 306 311 306 303 302
338 334 325 319 324 341 343 350 352 337 311 278 253 232 234 215 197 188 187 204 214 215 272 305 306 309 310 354 333 321 334 334 318 304 307 306 310 319
336 336 337 337 344 356 346 343 337 322 307 291 283 264 243 214 195 196 205 213 221 227 263 304 313 325 347 11 343 330 332 340 339 331 327 317 309 317
334 334 335 337 338 337 322 321 311 301 289 274 268 258 239 216 201 196 206 225 208 169 104 19 352 10 12 13 7 348 343 346 352 360 3 359 342 316